Stations météo

Publicité
Bordeaux/Merignac, France (7510): Température de l'air & dewpoint: 21.05.2019 05:00:00 - 27.05.2019 05:00:00 (CEST)Bordeaux/Merignac, France (7510): Température de l'air 5cm: 21.05.2019 05:00:00 - 27.05.2019 05:00:00 (CEST)Bordeaux/Merignac, France (7510): Température de l'air -20cm & Température de l'air -100cm: 21.05.2019 05:00:00 - 27.05.2019 05:00:00 (CEST)Bordeaux/Merignac, France (7510): Vitesse du vent & gusts: 21.05.2019 05:00:00 - 27.05.2019 05:00:00 (CEST)Bordeaux/Merignac, France (7510): Direction du vent: 21.05.2019 05:00:00 - 27.05.2019 05:00:00 (CEST)Bordeaux/Merignac, France (7510): reduced air pressure: 21.05.2019 05:00:00 - 27.05.2019 05:00:00 (CEST)Bordeaux/Merignac, France (7510): visibility: 21.05.2019 05:00:00 - 27.05.2019 05:00:00 (CEST)Bordeaux/Merignac, France (7510): Ensoleillement: 21.05.2019 05:00:00 - 27.05.2019 05:00:00 (CEST)Bordeaux/Merignac, France (7510): Quantités de précipitations: 21.05.2019 05:00:00 - 27.05.2019 05:00:00 (CEST)
Date & Time tt [°C] td [°C] tt 5cm [°C] tt -20cm [°C] tt -100cm [°C] ff [km/h] ff [knt] fx [km/h] fx [knt] dd ppp [hPa] vv [km] sd [min] rr [mm]
27.05.2019 05:00:00 - - - - - - - - - - - - - -
27.05.2019 04:00:00 13,1 12,2 12,7 19,5 17,0 7 4 14 7 W 1018,3 18 0 0,0
27.05.2019 03:00:00 13,3 12,5 13,0 19,7 17,0 6 4 11 6 WSW 1018,6 45 0 0,0
27.05.2019 02:00:00 13,4 12,8 13,1 19,8 17,0 9 5 14 8 W 1019,0 3,8 0 0,2
27.05.2019 01:00:00 13,5 12,7 13,1 20,0 17,0 11 6 25 14 W 1019,5 3,3 0 0,2
27.05.2019 00:00:00 14,7 11,5 14,4 20,2 17,0 15 8 22 12 WNW 1019,8 44 0 0,0
26.05.2019 23:00:00 15,1 11,3 14,8 20,4 17,0 11 6 22 12 WNW 1020,0 60 0 0,0
26.05.2019 22:00:00 15,5 11,3 15,2 20,7 17,0 13 7 29 16 WNW 1019,8 60 0 0,0
26.05.2019 21:00:00 16,4 10,9 16,1 20,8 17,0 19 10 30 16 WNW 1019,7 60 17 0,0
26.05.2019 20:00:00 17,4 11,2 18,1 20,9 17,0 21 11 31 17 WNW 1019,7 42 8 0,0
26.05.2019 19:00:00 19,3 12,1 20,8 20,7 17,0 22 12 33 18 WNW 1019,8 38 41 0,0
26.05.2019 18:00:00 19,9 12,4 22,9 20,4 17,0 24 13 41 22 WNW 1020,0 45 32 0,0
26.05.2019 17:00:00 21,9 12,2 24,8 20,1 17,0 22 12 29 16 WNW 1020,0 27 29 0,0
26.05.2019 16:00:00 20,9 11,8 25,8 19,8 16,9 17 9 34 18 W 1020,3 54 15 0,0
26.05.2019 15:00:00 20,1 11,3 23,1 19,5 17,0 18 10 31 17 WNW 1020,7 47 4 0,0
26.05.2019 14:00:00 20,1 11,3 23,0 19,2 16,9 14 8 24 13 W 1021,1 48 13 0,0
26.05.2019 13:00:00 20,0 10,7 21,7 18,8 16,9 12 6 25 13 NW 1021,4 50 34 0,0
26.05.2019 12:00:00 19,5 11,5 22,0 18,4 17,0 17 9 29 15 W 1021,8 39 43 0,0
26.05.2019 11:00:00 18,0 12,4 19,3 18,2 16,9 11 6 25 14 WNW 1021,9 41 47 0,0
26.05.2019 10:00:00 15,3 12,8 15,0 18,1 16,9 12 6 16 9 WNW 1022,3 22 0 0,0
26.05.2019 09:00:00 13,4 12,3 13,6 18,2 16,9 8 5 10 6 WSW 1022,4 14 0 0,0
26.05.2019 08:00:00 12,6 11,7 11,2 18,3 16,9 5 3 8 4 SW 1022,2 12 0 0,0
26.05.2019 07:00:00 11,8 10,7 11,0 18,4 16,9 5 3 10 5 WSW 1021,9 11 0 0,0
26.05.2019 06:00:00 11,9 11,0 10,8 18,6 16,9 8 4 11 6 WSW 1022,0 11 0 0,0
26.05.2019 05:00:00 11,6 10,8 8,9 18,8 16,9 8 4 10 5 WSW 1022,3 12 0 0,0
26.05.2019 04:00:00 11,4 10,3 9,2 19,0 16,8 7 4 9 5 WSW 1022,4 4,2 0 0,0
26.05.2019 03:00:00 11,6 10,3 9,1 19,3 16,8 5 3 9 5 W 1022,6 4,6 0 0,0
26.05.2019 02:00:00 12,2 10,6 10,1 19,6 16,8 6 4 10 5 WSW 1023,0 1,1 0 0,0
26.05.2019 01:00:00 12,7 10,6 10,5 19,8 16,8 7 4 10 5 WSW 1023,4 23 0 0,0
26.05.2019 00:00:00 13,4 10,4 11,5 20,1 16,8 6 4 10 6 W 1023,6 39 0 0,0
25.05.2019 23:00:00 13,9 10,3 12,4 20,4 16,8 8 4 16 8 WNW 1023,5 48 0 0,0
25.05.2019 22:00:00 14,4 10,4 13,1 20,6 16,8 12 7 19 10 NW 1022,8 55 0 0,0
25.05.2019 21:00:00 15,6 10,1 14,7 20,8 16,8 15 8 29 16 NW 1022,4 59 51 0,0
25.05.2019 20:00:00 17,3 9,9 19,3 20,8 16,7 20 11 35 19 WNW 1021,9 28 55 0,0
25.05.2019 19:00:00 18,4 10,0 21,0 20,8 16,8 22 12 36 19 WNW 1021,7 39 57 0,0
25.05.2019 18:00:00 19,4 10,1 20,5 20,6 16,7 26 14 41 22 WNW 1021,7 41 52 0,0
25.05.2019 17:00:00 19,4 9,8 22,8 20,3 16,7 24 13 41 22 NW 1021,6 37 56 0,0
25.05.2019 16:00:00 19,7 10,4 20,8 19,9 16,7 25 14 42 23 WNW 1021,5 40 41 0,0
25.05.2019 15:00:00 20,2 10,6 21,3 19,6 16,7 25 14 41 22 NW 1021,8 44 31 0,0
25.05.2019 14:00:00 19,3 10,0 21,8 19,2 16,7 23 13 39 21 NW 1021,9 59 27 0,0
25.05.2019 13:00:00 19,6 10,6 21,4 18,8 16,7 19 10 31 17 NW 1022,0 44 43 0,0
25.05.2019 12:00:00 18,5 10,1 22,7 18,4 16,7 16 9 32 17 NNW 1021,9 20 55 0,0
25.05.2019 11:00:00 17,4 11,4 20,3 18,3 16,7 16 8 33 18 NW 1022,1 21 55 0,0
25.05.2019 10:00:00 15,7 11,1 17,4 18,1 16,6 14 8 25 13 NW 1021,8 27 4 0,0
25.05.2019 09:00:00 14,9 11,1 16,1 18,2 16,6 11 6 17 9 NNW 1021,6 35 0 0,0
25.05.2019 08:00:00 14,3 10,7 13,0 18,3 16,6 9 5 18 10 NNW 1021,0 33 20 0,0
25.05.2019 07:00:00 13,4 10,6 11,8 18,4 16,6 8 4 18 10 NNW 1020,4 33 0 0,0
25.05.2019 06:00:00 12,9 11,1 10,9 18,6 16,6 10 5 16 9 NNW 1019,9 25 0 0,0
25.05.2019 05:00:00 12,8 12,0 11,3 18,8 16,6 5 3 10 5 NNW 1019,7 13 0 0,0
25.05.2019 04:00:00 13,2 12,4 11,4 19,0 16,6 5 3 11 6 WNW 1019,6 6 0 0,0
25.05.2019 03:00:00 14,1 13,0 12,8 19,2 16,5 8 4 17 9 WNW 1019,4 14 0 0,0
25.05.2019 02:00:00 13,9 12,8 12,9 19,4 16,5 11 6 17 9 WNW 1019,6 14 0 0,0
25.05.2019 01:00:00 14,1 12,7 13,3 19,7 16,5 13 7 19 10 W 1019,9 18 0 0,0
25.05.2019 00:00:00 14,0 12,4 12,9 19,9 16,5 13 7 19 10 W 1020,0 18 0 0,0
24.05.2019 23:00:00 14,5 12,4 13,6 20,1 16,5 13 7 19 10 WNW 1019,9 23 0 0,0
24.05.2019 22:00:00 15,2 12,3 14,2 20,4 16,5 15 8 26 14 WNW 1018,9 35 0 0,0
24.05.2019 21:00:00 17,1 12,6 16,4 20,5 16,5 19 10 29 16 WNW 1018,4 34 60 0,0
24.05.2019 20:00:00 18,3 15,2 15,9 20,6 16,5 13 7 30 16 WNW 1017,9 17 13 0,4
24.05.2019 19:00:00 17,7 14,8 16,8 20,5 16,5 18 10 41 22 NNE 1017,9 8 24 0,0
24.05.2019 18:00:00 21,8 12,1 24,9 20,2 16,5 21 12 38 20 NNW 1017,6 20 57 0,0
24.05.2019 17:00:00 22,0 12,0 23,3 19,9 16,4 22 12 40 21 NW 1017,4 45 41 0,0
24.05.2019 16:00:00 21,5 12,1 23,9 19,5 16,4 16 9 33 18 WNW 1017,5 33 37 0,0
24.05.2019 15:00:00 22,5 12,7 24,6 19,1 16,4 19 10 33 18 WNW 1017,7 24 39 0,0
24.05.2019 14:00:00 20,5 13,0 19,7 18,9 16,4 18 10 29 16 WNW 1018,1 41 19 0,0
24.05.2019 13:00:00 19,4 12,6 21,0 18,6 16,4 11 6 24 13 NW 1018,4 42 19 0,0
24.05.2019 12:00:00 19,7 13,4 20,4 18,3 16,4 9 5 19 10 N 1018,4 22 23 0,0
24.05.2019 11:00:00 17,4 13,3 19,4 18,2 16,4 14 8 22 12 NW 1018,6 23 0 0,0
24.05.2019 10:00:00 16,1 13,6 16,9 18,2 16,4 10 6 19 10 WNW 1018,7 14 0 0,0
24.05.2019 09:00:00 15,3 13,7 14,5 18,3 16,4 13 7 19 11 WNW 1018,5 11 0 0,0
24.05.2019 08:00:00 14,6 13,8 13,9 18,4 16,4 8 4 11 6 WSW 1018,2 7 0 0,2
24.05.2019 07:00:00 14,5 13,2 14,1 18,5 16,3 7 4 11 6 WNW 1018,0 8 0 0,0
24.05.2019 06:00:00 14,6 13,3 14,3 18,6 16,3 6 3 11 6 W 1017,6 10 0 0,0
24.05.2019 05:00:00 14,8 13,7 14,4 18,7 16,3 8 5 18 10 W 1017,7 9 0 0,0
24.05.2019 04:00:00 14,8 13,8 14,3 18,9 16,3 10 5 14 8 W 1017,6 7 0 0,0
24.05.2019 03:00:00 14,8 13,8 14,0 19,1 16,3 11 6 17 9 WSW 1017,9 6 0 0,0
24.05.2019 02:00:00 15,1 14,0 14,4 19,2 16,3 10 6 20 11 W 1018,3 6 0 0,0
24.05.2019 01:00:00 15,6 14,5 15,1 19,4 16,2 13 7 18 10 WSW 1018,4 8 0 0,0
24.05.2019 00:00:00 16,0 14,7 15,5 19,6 16,2 12 7 18 10 WSW 1018,3 8 0 0,0
23.05.2019 23:00:00 16,6 15,0 15,6 19,8 16,2 11 6 20 11 WSW 1018,3 10 0 0,0
23.05.2019 22:00:00 17,5 13,6 16,3 20,0 16,2 7 4 14 7 W 1017,9 19 0 0,0
23.05.2019 21:00:00 18,2 13,5 16,5 20,1 16,2 7 4 18 10 NW 1017,7 29 0 0,0
23.05.2019 20:00:00 19,0 13,0 16,1 20,2 16,2 8 4 30 16 WNW 1017,2 19 0 0,0
23.05.2019 19:00:00 21,4 11,7 21,8 20,2 16,2 21 11 29 16 WNW 1016,9 40 0 0,0
23.05.2019 18:00:00 22,3 11,7 22,6 20,2 16,2 17 9 32 18 WNW 1016,7 42 0 0,0
23.05.2019 17:00:00 23,9 10,6 25,7 20,1 16,2 14 7 20 11 WNW 1016,4 35 0 0,0
23.05.2019 16:00:00 23,7 11,1 24,0 19,8 16,1 14 8 31 17 WNW 1016,5 45 1 0,0
23.05.2019 15:00:00 26,0 9,8 29,8 19,4 16,2 6 4 19 11 SW 1016,4 53 19 0,0
23.05.2019 14:00:00 25,2 8,6 31,4 18,8 16,2 10 6 23 12 N 1016,7 50 60 0,0
23.05.2019 13:00:00 25,1 9,4 30,3 18,3 16,1 4 2 8 4 WSW 1017,1 44 56 0,0
23.05.2019 12:00:00 24,5 9,2 31,4 17,9 16,1 4 2 23 12 WNW 1017,5 25 60 0,0
23.05.2019 11:00:00 23,2 11,9 26,8 17,5 16,1 2 1 9 5 SE 1017,6 33 60 0,0
23.05.2019 10:00:00 21,0 11,3 22,9 17,4 16,1 4 2 10 6 E 1017,6 10 60 0,0
23.05.2019 09:00:00 18,0 10,8 17,7 17,4 16,1 8 4 11 6 ESE 1017,6 27 60 0,0
23.05.2019 08:00:00 15,4 11,2 7,8 17,6 16,1 4 2 9 5 ENE 1017,4 19 55 0,0
23.05.2019 07:00:00 11,0 10,2 5,9 17,8 16,0 3 1 8 5 ENE 1017,3 3,5 0 0,0
23.05.2019 06:00:00 11,1 9,7 6,2 18,0 16,0 0 0 4 2 N 1017,2 4,6 0 0,0
23.05.2019 05:00:00 11,8 10,2 6,8 18,2 16,0 0 0 5 3 N 1017,2 8 0 0,0
23.05.2019 04:00:00 12,5 10,7 7,3 18,4 15,9 3 2 5 3 NE 1017,4 10 0 0,0
23.05.2019 03:00:00 13,3 11,5 7,9 18,7 16,0 4 2 7 4 NE 1017,7 13 0 0,0
23.05.2019 02:00:00 13,4 11,3 8,2 19,0 15,9 3 2 5 3 N 1018,1 17 0 0,0
23.05.2019 01:00:00 14,4 11,4 8,9 19,3 15,9 3 1 5 3 N 1018,1 28 0 0,0
23.05.2019 00:00:00 16,4 10,9 10,7 19,6 15,9 2 1 12 7 WNW 1018,4 41 0 0,0
22.05.2019 23:00:00 18,0 11,3 14,5 19,8 15,9 10 5 12 7 NNE 1018,4 50 0 0,0
22.05.2019 22:00:00 19,8 10,5 16,8 20,0 15,9 10 6 17 9 NNE 1018,0 59 6 0,0
22.05.2019 21:00:00 22,2 11,0 21,0 20,1 15,9 12 6 24 13 NNE 1017,8 47 60 0,0
22.05.2019 20:00:00 23,4 9,8 25,4 20,2 15,9 13 7 29 15 NNE 1017,8 39 60 0,0
22.05.2019 19:00:00 23,6 9,9 24,2 20,1 15,9 18 10 28 15 NNE 1017,7 48 50 0,0
22.05.2019 18:00:00 24,7 7,8 24,4 19,9 15,9 8 4 38 20 NNE 1018,0 51 49 0,0
22.05.2019 17:00:00 24,4 9,2 24,7 19,5 15,9 13 7 25 13 NE 1018,5 43 38 0,0
22.05.2019 16:00:00 24,3 10,6 26,0 19,0 15,9 9 5 28 15 ENE 1018,8 35 44 0,0
22.05.2019 15:00:00 23,3 10,0 27,1 18,4 15,8 9 5 22 12 N 1019,1 27 50 0,0
22.05.2019 14:00:00 22,7 11,7 24,0 17,9 15,8 6 3 19 10 E 1019,6 38 49 0,0
22.05.2019 13:00:00 21,3 11,6 24,2 17,3 15,8 12 6 24 13 NE 1019,8 25 44 0,0
22.05.2019 12:00:00 21,0 11,6 25,4 16,9 15,8 7 4 16 8 NE 1020,1 30 55 0,0
22.05.2019 11:00:00 20,8 12,2 26,8 16,5 15,8 3 2 11 6 N 1019,9 18 60 0,0
22.05.2019 10:00:00 18,3 12,9 22,3 16,4 15,8 4 2 16 9 NE 1020,2 12 60 0,0
22.05.2019 09:00:00 15,6 13,1 14,9 16,4 15,8 6 4 27 15 NNE 1020,1 7 60 0,0
22.05.2019 08:00:00 12,7 12,5 6,6 16,5 15,8 0 0 13 7 N 1020,0 0,4 24 0,0
22.05.2019 07:00:00 9,5 9,2 5,4 16,7 15,8 3 1 10 5 NNW 1019,9 0,1 0 0,0
22.05.2019 06:00:00 9,1 8,3 5,6 16,9 15,7 3 2 5 3 W 1019,9 0,2 0 0,0
22.05.2019 05:00:00 10,0 9,4 5,8 17,1 15,7 4 2 4 2 W 1019,9 0,5 0 0,0
22.05.2019 04:00:00 10,5 9,7 6,1 17,3 15,7 3 2 7 4 W 1019,9 0,2 0 0,0
22.05.2019 03:00:00 11,1 10,0 7,0 17,6 15,7 0 0 5 3 N 1020,0 0,2 0 0,0
22.05.2019 02:00:00 11,9 10,6 8,0 17,8 15,7 4 2 7 4 NW 1020,0 0,5 0 0,0
22.05.2019 01:00:00 12,7 10,9 9,7 18,1 15,7 4 2 10 5 NW 1020,1 1,0 0 0,0
22.05.2019 00:00:00 13,4 11,3 11,5 18,3 15,7 4 2 14 7 N 1020,5 20 0 0,0
21.05.2019 23:00:00 14,5 12,2 11,4 18,6 15,7 7 4 11 6 NW 1020,3 32 0 0,0
21.05.2019 22:00:00 15,6 12,2 11,9 18,7 15,7 5 3 10 5 N 1019,5 29 4 0,0
21.05.2019 21:00:00 17,3 12,2 16,4 18,9 15,7 8 5 21 11 NW 1019,2 48 37 0,0
21.05.2019 20:00:00 17,9 12,6 18,6 18,9 15,7 16 9 30 16 NNW 1018,9 26 32 0,0
21.05.2019 19:00:00 18,1 12,8 18,9 18,8 15,7 20 11 34 19 NW 1018,7 20 10 0,0
21.05.2019 18:00:00 19,4 12,2 21,2 18,4 15,7 22 12 30 16 NW 1018,5 33 48 0,0
21.05.2019 17:00:00 21,0 11,1 23,5 18,0 15,7 11 6 22 12 W 1018,3 31 56 0,0
21.05.2019 16:00:00 19,0 12,3 20,4 17,5 15,7 15 8 24 13 NW 1018,7 40 16 0,0
21.05.2019 15:00:00 20,5 10,9 27,7 16,8 15,7 5 3 13 7 NNW 1018,7 33 60 0,0
21.05.2019 14:00:00 18,8 12,3 20,1 16,2 15,8 5 3 20 11 WSW 1019,2 23 31 0,0
21.05.2019 13:00:00 17,9 11,2 23,8 15,7 15,7 5 3 16 9 ESE 1019,4 19 50 0,0
21.05.2019 12:00:00 15,7 11,9 18,7 15,4 15,7 4 2 10 6 NE 1019,4 19 4 0,0
21.05.2019 11:00:00 14,1 11,1 15,9 15,2 15,7 4 2 9 5 N 1019,4 18 0 0,0
21.05.2019 10:00:00 12,7 11,9 12,2 15,2 15,7 4 2 10 5 W 1019,1 12 0 0,0
21.05.2019 09:00:00 11,0 10,5 10,9 15,1 15,7 5 3 8 5 SW 1018,8 3,1 0 0,0
21.05.2019 08:00:00 10,0 9,7 9,0 15,2 15,7 6 3 9 5 WSW 1018,3 6 0 0,0
21.05.2019 07:00:00 9,2 9,1 7,6 15,3 15,7 0 0 6 3 N 1017,9 2,4 0 0,0
21.05.2019 06:00:00 8,2 7,9 3,9 15,5 15,7 6 3 9 5 SW 1017,6 0,3 0 0,0
21.05.2019 05:00:00 8,0 7,7 3,6 15,7 15,7 7 4 9 5 WSW 1017,5 0,3 0 0,0

tt = Température de l'air
td = dewpoint
tt 5cm = Température de l'air 5cm
tt -20cm = Température de l'air -20cm
tt -100cm = Température de l'air -100cm
ff = Vitesse du vent
fx = gusts
dd = Direction du vent
ppp = reduced air pressure
vv = visibility
sd = Ensoleillement
rr = Quantités de précipitations

stations d'obs. à proximité